Regional Weather Roundup
Issued by NWS Charleston, WV

Home | Current Version | Previous Version | Graphics & Text | Print | Product List | Glossary On
Versions: 1 2 3 4 5 6 7 8 9 10 11 12 13 14 15 16 17 18 19 20 21 22 23 24 25 26 27 28 29 30 31 32 33 34 35 36 37 38 39 40 41 42 43 44 45 46 47 48 49 50
896
ASUS41 KRLX 230310
RWRRLX
West Virginia Regional Weather Roundup
National Weather Service Charleston WV
1100 PM EDT THU JUN 22 2017

Note: "fair" indicates few or no clouds below 12,000 feet with no
significant weather and/or obstructions to visibility.

WVZ003-230400-
Northern Panhandle of West Virginia

CITY           SKY/WX    TMP DP  RH WIND       PRES   REMARKS
WHEELING       LGT RAIN  73  68  84 SW6       29.97R
$$

WVZ009-230400-
Northwest West Virginia

CITY           SKY/WX    TMP DP  RH WIND       PRES   REMARKS
PARKERSBURG    LGT RAIN  72  68  87 S5        30.00R
$$

WVZ006-230400-
Western West Virginia

CITY           SKY/WX    TMP DP  RH WIND       PRES   REMARKS
HUNTINGTON     LGT RAIN  71  69  93 E5        29.96F FOG
$$

WVZ015-230400-
West Central West Virginia

CITY           SKY/WX    TMP DP  RH WIND       PRES   REMARKS
CHARLESTON     HVY RAIN  71  68  90 S9        29.99F
$$

WVZ022-031-230400-
North Central West Virginia

CITY           SKY/WX    TMP DP  RH WIND       PRES   REMARKS
CLARKSBURG     CLOUDY    74  69  85 CALM      30.00R
MORGANTOWN     CLOUDY    75  66  73 S3        30.00R
$$

WVZ025-035-042-045-230400-
Southern West Virginia

CITY           SKY/WX    TMP DP  RH WIND       PRES   REMARKS
BECKLEY        RAIN      66  64  93 SE6       30.11S FOG
LOGAN          CLOUDY    70  68  94 CALM      30.01F
BLUEFIELD      CLOUDY    65  64  97 CALM      30.12F
LEWISBURG      LGT RAIN  68  66  93 SW5       30.12S
$$

WVZ047-230400-
Northern Mountains of West Virginia

CITY           SKY/WX    TMP DP  RH WIND       PRES   REMARKS
ELKINS         CLOUDY    70  67  90 CALM      30.06S
$$

WVZ052-230400-
Eastern Panhandle of West Virginia

CITY           SKY/WX    TMP DP  RH WIND       PRES   REMARKS
MARTINSBURG    CLOUDY    75  72  90 CALM      29.96S
PETERSBURG     PTCLDY    73  72  97 CALM      30.00S
$$




USA.gov is the U.S. government's official web portal to all federal, state and local government web resources and services.